Location: Sweet Grass
(48.9965°N, 111.9649°W)
Time: 22:33:50
(UTC+00:00)

ORBCOMM FM 41 - Visible Passes

Search period start: 01 December 2023 00:00
Search period end: 11 December 2023 00:00
Orbit: 638 x 644 km, 48.4° (Epoch: 30 November)

Date Brightness Start Highest point End Pass type
(mag) Time Alt. Az. Time Alt. Az. Time Alt. Az.
01 Dec 10.7 12:21:06 10° SSE 12:22:07 11° SE 12:23:08 10° ESE visible
01 Dec 9.1 13:58:54 10° SW 14:03:13 38° SSE 14:07:33 10° E visible
02 Dec 10.0 12:42:12 10° S 12:45:39 21° SE 12:49:06 10° E visible
02 Dec 8.3 14:22:30 10° WSW 14:27:06 58° SSE 14:31:42 10° E visible
03 Dec 9.1 13:05:06 10° SW 13:09:20 35° SSE 13:13:35 10° E visible
04 Dec 9.8 11:51:01 18° SSE 11:51:47 18° SE 11:55:00 10° E visible
04 Dec 8.3 13:28:36 10° SW 13:33:10 54° SSE 13:37:44 10° E visible
05 Dec 9.0 12:14:36 30° S 12:15:25 32° SSE 12:19:34 10° E visible
05 Dec 7.8 13:52:26 10° WSW 13:57:07 74° SSE 14:01:47 10° E visible
06 Dec 10.7 11:00:27 11° ESE 11:00:27 11° ESE 11:00:48 10° E visible
06 Dec 8.3 12:38:00 39° SSW 12:39:13 50° SSE 12:43:44 10° E visible
06 Dec 7.7 14:16:25 10° W 14:21:07 85° S 14:25:49 10° E visible
07 Dec 10.1 11:23:43 20° ESE 11:23:43 20° ESE 11:25:30 10° E visible
07 Dec 7.8 13:01:16 36° WSW 13:03:07 70° SSE 13:07:47 10° E visible
08 Dec 9.3 11:46:54 32° ESE 11:46:54 32° ESE 11:49:42 10° E visible
08 Dec 7.6 13:24:26 26° W 13:27:05 84° S 13:31:47 10° E visible
09 Dec 8.3 12:09:59 53° ESE 12:09:59 53° ESE 12:13:44 10° E visible
09 Dec 7.6 13:47:31 17° W 13:51:06 85° S 13:55:47 10° E visible
10 Dec 10.8 10:55:28 11° E 10:55:28 11° E 10:55:37 10° E visible
10 Dec 7.5 12:33:00 82° S 12:33:01 82° S 12:37:43 10° E visible
10 Dec 7.8 14:10:32 11° W 14:15:03 73° SSW 14:19:43 10° ESE visible
